Weather History for Peachtree City, GA

Change the Weather History Date:

Saturday, January 19, 2013

  Actual Average Record
Temperature  
Mean Temperature 41 °F 43 °F  
Max Temperature 57 °F 54 °F 69 °F (2001)
Min Temperature 25 °F 32 °F 17 °F (2005)
Degree Days  
Heating Degree Days 24 22  
Month to date heating degree days 432  
Since 1 July heating degree days 1613  
Cooling Degree Days 0 0  
Month to date cooling degree days 0  
Year to date cooling degree days 0  
Moisture  
Dew Point 28 °F    
Average Humidity 78    
Maximum Humidity 100    
Minimum Humidity 31    
Precipitation  
Precipitation 0.00 in 0.15 in 0.81 in (2001)
Month to date precipitation 2.18  
Year to date precipitation 2.18  
Snow  
Snow 0.00 in - - ()
Month to date snowfall  
Since 1 July snowfall  
Snow Depth -    
Sea Level Pressure  
Sea Level Pressure 30.39 in    
Wind  
Wind Speed 0 mph (West)    
Max Wind Speed 7 mph    
Max Gust Speed -    
Visibility 8 miles    
Events Fog    
T = Trace of Precipitation, MM = Missing Value Source: NWS Daily Summary

Daily Weather History Graph

Daily Weather History Graph

Search for Another Location

Airport:

Trip Planner

Search our weather history database for the weather conditions in past years. The results will help you decide how hot, cold, wet, or windy it might be!

Date:

Astronomy

Jan. 19, 2013 Rise Set
Actual Time 7:40 AM EST 5:57 PM EST
Civil Twilight 7:14 AM EST 6:24 PM EST
Nautical Twilight 6:43 AM EST 6:54 PM EST
Astronomical Twilight 6:14 AM EST 7:24 PM EST
Moon 12:20 PM EST (1/19) 1:18 AM EST (1/19)
Length of Visible Light 11h 10m
Length of Day
10h 16m
First Quarter, 57% of the Moon is Illuminated
Jan 19
First Quarter
Jan 26
Full
Feb 3
Last Quarter
Feb 10
New
Feb 17
First Quarter

Hourly Weather History & Observations

Time (EST) Temp. Windchill Dew Point Humidity Pressure Visibility Wind Dir Wind Speed Gust Speed Precip Events Conditions
12:35 AM 28.4 °F - 26.6 °F 93% 30.46 in 9.0 mi Calm Calm - N/A   Mostly Cloudy
12:42 AM 28.4 °F - 26.6 °F 93% 30.46 in 1.2 mi Calm Calm - N/A   Mostly Cloudy
12:50 AM 28.4 °F - 28.4 °F 100% 30.46 in 0.8 mi Calm Calm - N/A   Mist
12:55 AM 28.4 °F - 28.4 °F 100% 30.46 in 3.0 mi Calm Calm - N/A   Mostly Cloudy
1:08 AM 28.4 °F - 26.6 °F 93% 30.45 in 8.0 mi Calm Calm - N/A   Scattered Clouds
1:53 AM 28.0 °F - 26.1 °F 92% 30.47 in 9.0 mi Calm Calm - N/A   Clear
2:53 AM 28.0 °F - 25.0 °F 88% 30.45 in 9.0 mi Calm Calm - N/A   Clear
3:53 AM 27.0 °F - 25.0 °F 92% 30.45 in 9.0 mi Calm Calm - N/A   Clear
4:36 AM 26.6 °F - 24.8 °F 93% 30.42 in 9.0 mi Calm Calm - N/A   Scattered Clouds
4:42 AM 26.6 °F - 24.8 °F 93% 30.42 in 2.5 mi Calm Calm - N/A   Mostly Cloudy
4:45 AM 26.6 °F - 24.8 °F 93% 30.42 in 0.8 mi Calm Calm - N/A   Mist
4:53 AM 27.0 °F - 25.0 °F 92% 30.43 in 0.2 mi Calm Calm - N/A Fog Light Freezing Fog
5:13 AM 26.6 °F - 24.8 °F 93% 30.41 in 2.0 mi Calm Calm - N/A   Mist
5:19 AM 26.6 °F - 24.8 °F 93% 30.40 in 8.0 mi Calm Calm - N/A   Partly Cloudy
5:53 AM 26.1 °F - 24.1 °F 92% 30.45 in 9.0 mi Calm Calm - N/A   Clear
6:53 AM 25.0 °F - 23.0 °F 92% 30.46 in 9.0 mi Calm Calm - N/A   Clear
7:53 AM 25.0 °F - 21.9 °F 88% 30.46 in 8.0 mi Calm Calm - N/A   Clear
8:53 AM 28.9 °F - 27.0 °F 92% 30.46 in 7.0 mi Calm Calm - N/A   Clear
9:53 AM 37.9 °F - 33.1 °F 83% 30.48 in 9.0 mi Calm Calm - N/A   Clear
10:53 AM 45.0 °F 43.5 °F 28.9 °F 53% 30.47 in 10.0 mi SSE 3.5 mph - N/A   Clear
11:53 AM 50.0 °F - 28.0 °F 43% 30.43 in 10.0 mi Calm Calm - N/A   Clear
12:53 PM 53.1 °F - 28.9 °F 40% 30.37 in 10.0 mi Calm Calm - N/A   Clear
1:53 PM 55.9 °F - 28.9 °F 36% 30.33 in 10.0 mi West 6.9 mph - N/A   Clear
2:53 PM 55.9 °F - 30.0 °F 37% 30.30 in 10.0 mi Variable 4.6 mph - N/A   Clear
3:53 PM 57.9 °F - 27.0 °F 31% 30.28 in 10.0 mi Variable 5.8 mph - N/A   Clear
4:53 PM 57.9 °F - 28.9 °F 33% 30.28 in 10.0 mi WNW 5.8 mph - N/A   Clear
5:53 PM 52.0 °F - 33.1 °F 49% 30.29 in 10.0 mi Calm Calm - N/A   Clear
6:53 PM 44.1 °F - 37.0 °F 76% 30.29 in 10.0 mi Calm Calm - N/A   Clear
7:53 PM 39.9 °F - 35.1 °F 83% 30.30 in 10.0 mi Calm Calm - N/A   Clear
8:53 PM 37.9 °F - 34.0 °F 86% 30.30 in 10.0 mi Calm Calm - N/A   Clear
9:53 PM 37.0 °F - 33.1 °F 86% 30.29 in 10.0 mi Calm Calm - N/A   Clear
10:53 PM 36.0 °F - 33.1 °F 89% 30.27 in 10.0 mi Calm Calm - N/A   Clear
11:53 PM 35.1 °F - 32.0 °F 89% 30.26 in 9.0 mi Calm Calm - N/A   Clear